Location: Hilton Head Island
(32.2163°N, 80.7526°W)
Time: 22:09:07
(UTC-05:00)

Tiros 1 despin weight - Pass Details

Date: 20 February 2026
Orbit: 556 x 593 km, 48.2° (Epoch: 7 March)

Event Time Altitude Azimuth Distance (km) Brightness Sun altitude
Rises 20:20:58 0° 313° (NW) 2,732 ? -27.6°
Reaches altitude 10° 20:23:15 10° 317° (NW) 1,837 ? -28.1°
Enters shadow 20:25:10 26° 326° (NNW) 1,128 ? -28.5°
Maximum altitude 20:27:23 58° 37° (NE) 653 - -29.0°
Drops below altitude 10° 20:31:32 10° 117° (ESE) 1,843 - -29.8°
Sets 20:33:49 0° 121° (ESE) 2,742 - -30.3°
